{"data":{"norad_id":64192,"intl_designator":"2025-113Y","name":"STARLINK-34265","alt_names":[],"object_type":"PAYLOAD","status":"ACTIVE","operator":null,"country":"US","launch_date":"2025-05-28","launch_site_code":"AFETR","launch_vehicle":null,"mission":null,"orbit_class":"UNKNOWN","rcs_meters":null,"size_class":null,"mass_kg":null,"dimensions":null,"purposes":["comms"],"wikipedia_slug":null,"has_3d_model":false,"image_url":null,"decayed_at":null,"tle_current":{"epoch":"2026-05-25T02:35:38.576832Z","epoch_age_seconds":61633,"freshness":"FRESH","line1":"1 64192U 25113Y   26145.10808538  .00014569  00000+0  50290-3 0  9998","line2":"2 64192  53.1592  96.2732 0001377 120.0984 240.0153 15.30210202 56721","mean_motion":15.30210202,"eccentricity":0.0001377,"inclination_deg":53.1592,"raan_deg":96.2732,"arg_perigee_deg":120.0984,"mean_anomaly_deg":240.0153,"bstar":0.0005029,"rev_number":5672,"period_min":94.104718300656,"perigee_km":474.24090587003,"apogee_km":476.12831064094,"semimajor_km":6853.3216082555,"source":"CELESTRAK","updated_at":"2026-05-25T13:38:20.314665Z"}}}